Погода Кокшетау

Хотите узнать прогноз погоды в Кокчетаве? Тогда Вам сюда: Погода в Кокчетаве

Поиск расширенной информации на нашем сайте:

Полезная информация:

Новости сайта



02.01.2020
Опубликован Долгосрочный прогноз погоды по городам России и ближнего зарубежья на январь 2020 года.
Карты: Прогноз на январь и февраль 2020 года, Сравнение прогнозируемой аномалии приземной температуры воздуха на январь 2020 года по разным моделям.




Погода Кокшетау - сегодня

Время (UTC), дата Ветер
(°,м/с) 
Видим.   Явления Облачность Т
(°С)
Тd
(°С)
f(%) Тe
(°С)
Pmin
(гПа)
dP
(гПа)
Po
(мм)
O2
(г/м3)
Тmin Tmax R s Состояние
почвы
12 22.10.21 230 (ЮЗ) 10  20000 м  {ливн. осадки}  10/10 600 м кучево-дожд. 
[Cb cap]
+2.5 -0.2 82 -2  1012.3  738  295           
15 22.10.21 230 (ЮЗ) н/о    10/10 600 м кучево-дожд. 
[Cb cap]
+3 +0.9 86 -1  1013.7  1.4  739  294    +3.1       
18 22.10.21 230 (ЮЗ) н/о    10/10 600 м кучево-дожд. 
[Cb cap]
+4.1 +1.8 85 +1  1013.3  -0.2  739  293    +3.1  0.0     
21 22.10.21 210 (ЮЗ) н/о  {ливн. осадки}  10/10 600 м кучево-дожд. 
[Cb cap]
+5.3 +3.1 86 +3  1012  -1.2  738  291           
00 23.10.21 230 (ЮЗ) н/о  {ливн. осадки}  10/10 600 м кучево-дожд. 
[Cb cap]
+6.8 +3.5 79 +4  1010.1  -1.7  737  289           
03 23.10.21 230 (ЮЗ) 10{16}  20000 м    10/10 600 м 
[Sc]
+6.1 +2.5 78 +3  1010.9  0.7  737  290           
06 23.10.21 240 (ЮЗ) 11{15}  20000 м    10/6 600 м средняя, верхняя 
[Sc|Ac trans|Ci fib]
+7.3 +3.1 75 +4  1011.9  1.1  738  289  +3    0.0     
09 23.10.21 240 (ЮЗ) 10{16}  20000 м    10/6 600 м верхняя 
[Sc|Ci fib]
+10.1 +4.3 67 +8  1012.5  0.9  739  286           
12 23.10.21 230 (ЮЗ) 20000 м    8/3 600 м верхняя 
[Sc|Ci fib]
+10 +4.9 71 +8  1014.1  1.5  740  287           
15 23.10.21 260 (З) н/о    10/10 600 м 
[Sc]
+11.1 +5.7 69 +9  1015.8  1.8  741  286    +11.3       
18 23.10.21 250 (З) н/о    10/4 600 м верхняя 
[Sc|Ci fib]
+9.1 +4.9 75 +7  1017.2  1.2  742  289    +11.3       
21 23.10.21 220 (ЮЗ) н/о    10/0 верхняя 
[Ci fib]
+7.3 +4.8 84 +5  1018.7  1.2  743  291           
00 24.10.21 220 (ЮЗ) н/о    10/0 
[Sc]
+7.8 +4.4 79 +6  1019  0.4  743  290           
03 24.10.21 230 (ЮЗ) 20000 м    8/0 средняя 
[Sc|Ac trans]
+8.5 +6.1 85 +6  1019.4  0.4  744  290           
06 24.10.21 230 (ЮЗ) 20000 м    10/10 600 м 
[Sc]
+9.6 +6.6 82 +8  1020.2  0.9  744  289  +6.9         
09 24.10.21 230 (ЮЗ) 20000 м    10/10 1000 м 
[Sc]
+12 +6.1 67 +11  1018.8  -1.1  743  286           
12 24.10.21 220 (ЮЗ) 20000 м    8/4 600 м средняя, верхняя 
[Sc|Ac trans|Ci fib]
+12.5 +6 65 +11  1017.6  -1.1  743  285           
15 24.10.21 210 (ЮЗ) н/о    4/0 средняя, верхняя 
[Ac trans|Ci fib]
+10.7 +1.8 54 +9  1017.4  -0.4  742  288    +13.5       
18 24.10.21 220 (ЮЗ) 10{16}  н/о    3/0 средняя 
[Ac lent]
+8.3 -2.3 47 +5  1016.1  -1.5  741  290    +13.5       
21 24.10.21 220 (ЮЗ) н/о    ясно 
+7 -2.5 51 +4  1014.9  -1.3  740  291           
00 25.10.21 220 (ЮЗ) н/о    3/0 средняя 
[Ac lent]
+6.1 -2.7 53 +3  1014.8  -0.2  740  292           
03 25.10.21 220 (ЮЗ) 20000 м    10/8 600 м средняя 
[Sc|Ac und]
+6 -2.2 56 +4  1016.3  1.4  741  292           
06 25.10.21 210 (ЮЗ) 20000 м    10/5 600 м средняя 
[Sc|Ac und]
+8.1 -0.3 55 +7  1016.4  0.4  741  290  +5.9         
09 25.10.21 210 (ЮЗ) 20000 м    10/3 600 м средняя 
[Sc|Ac und]
+10.9 +0.8 50 +12  1015  -1.1  741  287           
12 25.10.21 150 (ЮВ) 10 км    10/10 600 м 
[Sc]
+10.8 -2 41 +12  1013.4  -1.6  739  287           
Время (UTC), дата Ветер
(°,м/с) 
Видим.   Явления Облачность Т
(°С)
Тd
(°С)
f(%) Тe
(°С)
Pmin
(гПа)
dP
(гПа)
Po
(мм)
O2
(г/м3)
Тmin Tmax R s Состояние
почвы

Для получения пояснительной информации подведите курсор к названию столбца.

ПОГОДА Кокшетау - архив

Всё, что Вы хотите узнать о погоде Кокшетау - удобно и подробно!

Выберите нужную дату (начиная с 1 января 2019* года) и нажмите кнопку "Найти".
Будут отображены архивные сводки погоды по пункту Кокшетау, начиная с указанной даты.


Отображать данные в формате CSV (для использования в таблицах Excel)


Внимание! Наш архив погоды предназначен исключительно для личного некоммерческого использования в познавательных целях. Если Вам необходимы официальные справки о состоянии погоды (для производственных, юридических, коммерческих и т.п. целей), обращайтесь в органы Росгидромета.

*Примечание: данная дата относится к архиву по метеостанциям СССР (Россия, СНГ, Балтия).
Архив по метеостанциям Зарубежной Европы и Азии (кроме Китая) хранится 10 дней, по другим регионам земного шара (Китай, Африка, Америка, Австралия, Океания) - 1 день.

Кокшетау - район местоположения метеостанции


Название, широта, долгота, высота метеостанции:
Кокшетау 53.3°ш. 69.4°д. 229 м над ур. моря [Казахстан]

Дополнительная информация

В oтличие oт бoльшинства пoгoдных сайтoв мы публикуем пoдрoбную метеoинфoрмацию в детальнoм прoфессиoнальнoм фoрмате.

Характеристики температуры и влажнoсти вoздуха измеряются на высoте 2 м в тени вдали oт зданий и деревьев.
Скoрoсть ветра измеряется на высoте 10 м (на урoвне рoста челoвека скoрoсть ветра ниже в 1.5-2 раза). Если метеoстанция нахoдится в гoрoде или в лесу, тo скoрoсть ветра занижена на 2-4 м/с пo сравнению с oткрытым местoм. Скoрoсть ветра над акватoриями крупных рек и oзёр, а также на вершинах хoлмoв на 2-5 м/с выше, чем в oбычных услoвиях.
Атмoсфернoе давление в разных тoчках местнoсти мoжет значительнo oтличаться oт давления на метеoстанции, в зависимoсти oт услoвий рельефа (при пoдъёме на 10 м давление пoнижается примернo на 1 мм рт.ст.).